Location: Wells
(51.2093°N, 2.6446°W)
Time: 07:29:22
(UTC+01:00)

PCSat - Pass Details

Date: 16 March 2026
Orbit: 780 x 790 km, 67.1° (Epoch: 13 April)

Event Time Altitude Azimuth Distance (km) Brightness Sun altitude
Exits shadow 23:27:21 13° 31° (NNE) 2,132 12.1 -39.0°
Drops below altitude 10° 23:27:58 10° 33° (NNE) 2,364 12.4 -39.1°
Sets 23:30:27 0° 37° (NE) 3,297 13.2 -39.2°
